Back to catalog

BREEZE-M R/B

AliveHEO
NORAD 33438·ROCKET BODY·🇷🇺 Russia

Launched Nov 5, 2008 from Baikonur Cosmodrome

Loading…

Next Passes (next 24 hours)

TLE

FreshSource: Space-Track

Epoch: Sep 13, 2026, 23:25 UTC

1 33438U 08057C   26256.97580619 -.00000178  00000-0  00000-0 0  9994
2 33438  19.8757 114.4119 5873958 300.6940  14.3290  2.00031089130408

Track BREEZE-M R/B in real time with AllMySat

Download on the App Store